TimeCST,TemperatureF,Dew PointF,Humidity,Sea Level PressureIn,VisibilityMPH,Wind Direction,Wind SpeedMPH,Gust SpeedMPH,PrecipitationIn,Events,Conditions,WindDirDegrees,DateUTC
12:53 AM,54.0,24.1,31,30.00,10.0,Variable,6.9,18.4,N/A,,Clear,0,2014-01-21 06:53:00
1:53 AM,52.0,25.0,35,30.03,10.0,NNW,8.1,17.3,N/A,,Clear,340,2014-01-21 07:53:00
2:53 AM,50.0,23.0,35,30.05,10.0,NW,8.1,19.6,N/A,,Clear,320,2014-01-21 08:53:00
3:53 AM,46.9,19.9,34,30.06,10.0,NW,8.1,-,N/A,,Clear,310,2014-01-21 09:53:00
4:53 AM,46.0,19.9,35,30.07,10.0,NW,4.6,-,N/A,,Clear,310,2014-01-21 10:53:00
5:53 AM,44.1,19.9,38,30.10,10.0,WNW,5.8,-,N/A,,Clear,300,2014-01-21 11:53:00
6:53 AM,43.0,18.0,37,30.14,10.0,NNW,8.1,-,N/A,,Clear,330,2014-01-21 12:53:00
7:53 AM,42.1,16.0,35,30.18,10.0,NW,11.5,19.6,N/A,,Clear,320,2014-01-21 13:53:00
8:53 AM,39.9,19.0,43,30.25,10.0,North,11.5,18.4,N/A,,Clear,360,2014-01-21 14:53:00
9:53 AM,39.0,15.1,38,30.30,10.0,NNW,15.0,23.0,N/A,,Clear,330,2014-01-21 15:53:00
10:53 AM,39.0,14.0,36,30.30,10.0,North,8.1,17.3,N/A,,Clear,350,2014-01-21 16:53:00
11:53 AM,39.0,9.0,29,30.29,10.0,NNW,15.0,24.2,N/A,,Clear,330,2014-01-21 17:53:00
12:53 PM,39.0,10.9,32,30.28,10.0,North,9.2,19.6,N/A,,Clear,350,2014-01-21 18:53:00
1:53 PM,39.0,10.9,32,30.26,10.0,NNE,9.2,16.1,N/A,,Clear,30,2014-01-21 19:53:00
2:53 PM,39.0,9.0,29,30.26,10.0,North,9.2,-,N/A,,Clear,10,2014-01-21 20:53:00
3:53 PM,37.9,10.0,32,30.26,10.0,NE,8.1,-,N/A,,Clear,40,2014-01-21 21:53:00
4:53 PM,37.0,10.9,34,30.27,10.0,NE,4.6,-,N/A,,Clear,40,2014-01-21 22:53:00
5:53 PM,33.1,12.9,43,30.27,10.0,NNE,3.5,-,N/A,,Clear,30,2014-01-21 23:53:00
6:53 PM,30.9,12.0,46,30.27,10.0,NE,4.6,-,N/A,,Clear,40,2014-01-22 00:53:00
7:53 PM,30.0,15.1,54,30.26,10.0,Calm,Calm,-,N/A,,Clear,0,2014-01-22 01:53:00
8:53 PM,28.0,16.0,61,30.26,10.0,Calm,Calm,-,N/A,,Clear,0,2014-01-22 02:53:00
9:53 PM,28.0,15.1,58,30.26,10.0,Calm,Calm,-,N/A,,Clear,0,2014-01-22 03:53:00
10:53 PM,27.0,16.0,63,30.26,10.0,East,3.5,-,N/A,,Clear,100,2014-01-22 04:53:00
11:53 PM,26.1,15.1,63,30.26,10.0,Calm,Calm,-,N/A,,Clear,0,2014-01-22 05:53:00